Tracking 20232 objects as of 21-Jan-2020
HD Live streaming from Space Station
objects crossing your sky now

SL-8 DEB

Track SL-8 DEB now!
10-day predictions


NORAD ID: 22841
Int'l Code: 1991-009CL
Perigee: 1,483.3 km
Apogee: 1,690.6 km
Inclination: 74.0 °
Period: 117.8 minutes
Semi major axis: 7957 km
RCS: 0.0241 m2 (small)
Launch date: February 12, 1991
Source: Commonwealth of Independent States (former USSR) (CIS)
Launch site: PLESETSK MISSILE AND SPACE COMPLEX (PKMTR)

Note: This is SATELLITE DEBRIS
aabbcc
Your satellite tracking list
Your tracking list is empty




NASA's NSSDC Master Catalog

Two Line Element Set (TLE):
1 22841U 91009CL  20019.90969672 -.00000019  00000-0 -32700-4 0  9994
2 22841  74.0407 174.2160 0130260 279.7720 244.8993 12.22924082288838
Source of the keplerian elements: AFSPC